星链-37553(STARLINK-37553)

导读

STARLINK-37553(NORAD编号69820)是美国SpaceX公司星链(Starlink)低轨宽带互联网星座的组网卫星之一,由SpaceX设计制造并运营,用于全球高速低延迟卫星互联网服务。该卫星属于星链V2 Mini或后续批次组网星,2026年由猎鹰9号火箭发射入轨,运行于约530-550公里高度的近地轨道,轨道倾角约53度,运行周期约93-94分钟,可为地面偏远地区、航空海事等场景提供宽带接入,是星链全球覆盖网络的组成单元,设计寿命约5年,遵循空间碎片减缓规范离轨处置。

基本信息
目录编号:
69820
目录名称:
STARLINK-37553
国际标识:
2026-154B
轨道中心:
EARTH
卫星名称:
星链-37553
卫星全名:
星链-37553(STARLINK-37553)
卫星状态:
在轨 (已飞行61 天)
发射日期:
2026-07-05 UTC
国别 :
美国 (US)
星等 :
--
轨道信息
数据来源 国际轨道数据 AOE轨道数据
星历时间 2026-09-04T10:30:53+0800
5小时前
查看轨道信息
2026-09-01T12:00:00+0800
3天前
查看轨道信息
半长轴 6840.873km 6840.664km
偏心率 0.0000406 0.0002172
轨道倾角 53.163° 53.155°
近地点辐角 174.106° 86.716°
升交点赤经 48.184° 61.919°
平近点角 185.995° 234.805°
近地点 462.458km 461.041km
远地点 463.014km 464.013km
周期 93.848分钟 93.844分钟
每日圈数 15.34389 15.344594
详细信息
固有亮度:
5
最大亮度:
2.5
卫星平台:
Starlink V1.0
覆盖范围:
全球
运营商:
太空探索技术公司
运营商所在国:
美国
制造商(研发单位):
太空探索技术公司
制造商所在国:
美国
使用方式:
暂无
卫星简介
Starlink 计划是 SpaceX 推出的全球卫星互联网项目,通过发射低轨道卫星,为全球尤其是偏远地区提供高速、低延迟的互联网服务。自 2019 年起,Starlink 已部署数千颗卫星,旨在缩小全球数字鸿沟,推动互联网普及。该项目还为军事、航空等行业提供通信支持,带来广泛经济效益。
2D轨道图
3D轨道图
轨道高度分析图
轨道倾角分析图
轨道综合分析图
查看轨道综合分析图
交会数据列表
事件ID 空间交会对象 最接近时刻(TCA) 交会距离 交会风险概率(CRP) 交会风险指数(CRI) 操作
CDM_260904-132705-173106-982021
2026-09-04T
13:27:04+0000
2.681 km
极远距离
1.397463E-6 低风险 0.38
CDM_260903-223805-389806-982021
2026-09-03T
22:38:46+0000
2.813 km
极远距离
1.299283E-6 低风险 0.37
CDM_260904-135804-940906-982021
2026-09-04T
13:58:42+0000
2.818 km
极远距离
1.057511E-6 低风险 0.35